Location: Unspecified
(42.9300°N, 71.1866°W)
Time: 03:51:43
(UTC-04:00)

CZ-3 Stage 3 - Visible Passes

Search period start: 24 April 2014 00:00
Search period end: 04 May 2014 00:00
Orbit: 473 x 34783 km, 30.6° (Epoch: 23 April)

Date Brightness Start Highest point End Pass type
(mag) Time Alt. Az. Time Alt. Az. Time Alt. Az.
24 Apr 5.8 01:08:52 28° SE 01:08:52 28° SE 01:25:56 10° ESE visible
26 Apr 6.1 04:33:52 14° WSW 04:49:40 33° SSW 10:11:56 10° S visible
27 Apr 5.9 01:07:51 28° SE 01:07:51 28° SE 01:26:16 10° ESE visible
29 Apr 6.2 04:32:52 13° WSW 04:49:45 31° SSW 09:59:15 10° S visible
30 Apr 5.9 01:06:52 28° SE 01:06:52 28° SE 01:26:35 10° ESE visible
02 May 6.2 04:31:53 12° WSW 04:49:55 30° SSW 09:45:53 10° S visible
03 May 6.0 01:05:53 28° SE 01:05:53 28° SE 01:26:53 10° ESE visible
